Year,Month,Day,Hour,Minute,Value (Times are PST for temperature in C)
2016,02,25,00,00,2.30
2016,02,25,00,01,2.30
2016,02,25,00,02,2.40
2016,02,25,00,03,2.30
2016,02,25,00,04,2.30
2016,02,25,00,05,2.30
2016,02,25,00,06,2.40
2016,02,25,00,07,2.40
2016,02,25,00,08,2.40
2016,02,25,00,09,2.40
2016,02,25,00,10,2.40
2016,02,25,00,11,2.40
2016,02,25,00,12,2.40
2016,02,25,00,13,2.40
2016,02,25,00,14,2.40
2016,02,25,00,15,2.40
2016,02,25,00,16,2.40
2016,02,25,00,17,2.40
2016,02,25,00,18,2.40
2016,02,25,00,19,2.40
2016,02,25,00,20,2.30
2016,02,25,00,21,2.30
2016,02,25,00,22,2.30
2016,02,25,00,23,2.30
2016,02,25,00,24,2.30
2016,02,25,00,25,2.30
2016,02,25,00,26,2.30
2016,02,25,00,27,2.30
2016,02,25,00,28,2.30
2016,02,25,00,29,2.30
2016,02,25,00,30,2.30
2016,02,25,00,31,2.40
2016,02,25,00,32,2.40
2016,02,25,00,33,2.50
2016,02,25,00,34,2.60
2016,02,25,00,35,2.60
2016,02,25,00,36,2.50
2016,02,25,00,37,2.50
2016,02,25,00,38,2.50
2016,02,25,00,39,2.50
2016,02,25,00,40,2.50
2016,02,25,00,41,2.40
2016,02,25,00,42,2.40
2016,02,25,00,43,2.40
2016,02,25,00,44,2.40
2016,02,25,00,45,2.40
2016,02,25,00,46,2.40
2016,02,25,00,47,2.40
2016,02,25,00,48,2.40
2016,02,25,00,49,2.40
2016,02,25,00,50,2.40
2016,02,25,00,51,2.40
2016,02,25,00,52,2.30
2016,02,25,00,53,2.30
2016,02,25,00,54,2.30
2016,02,25,00,55,2.30
2016,02,25,00,56,2.30
2016,02,25,00,57,2.20
2016,02,25,00,58,2.20
2016,02,25,00,59,2.20
2016,02,25,01,00,2.20
2016,02,25,01,01,2.30
2016,02,25,01,02,2.30
2016,02,25,01,03,2.30
2016,02,25,01,04,2.30
2016,02,25,01,05,2.30
2016,02,25,01,06,2.30
2016,02,25,01,07,2.30
2016,02,25,01,08,2.30
2016,02,25,01,09,2.30
2016,02,25,01,10,2.30
2016,02,25,01,11,2.30
2016,02,25,01,12,2.30
2016,02,25,01,13,2.30
2016,02,25,01,14,2.30
2016,02,25,01,15,2.30
2016,02,25,01,16,2.20
2016,02,25,01,17,2.20
2016,02,25,01,18,2.20
2016,02,25,01,19,2.20
2016,02,25,01,20,2.20
2016,02,25,01,21,2.20
2016,02,25,01,22,2.20
2016,02,25,01,23,2.20
2016,02,25,01,24,2.20
2016,02,25,01,25,2.20
2016,02,25,01,26,2.20
2016,02,25,01,27,2.20
2016,02,25,01,28,2.20
2016,02,25,01,29,2.20
2016,02,25,01,30,2.20
2016,02,25,01,31,2.30
2016,02,25,01,32,2.30
2016,02,25,01,33,2.30
2016,02,25,01,34,2.30
2016,02,25,01,35,2.30
2016,02,25,01,36,2.30
2016,02,25,01,37,2.30
2016,02,25,01,38,2.30
2016,02,25,01,39,2.30
2016,02,25,01,40,2.20
2016,02,25,01,41,2.20
2016,02,25,01,42,2.20
2016,02,25,01,43,2.20
2016,02,25,01,44,2.20
2016,02,25,01,45,2.20
2016,02,25,01,46,2.20
2016,02,25,01,47,2.20
2016,02,25,01,48,2.20
2016,02,25,01,49,2.10
2016,02,25,01,50,2.10
2016,02,25,01,51,2.10
2016,02,25,01,52,2.10
2016,02,25,01,53,2.00
2016,02,25,01,54,2.00
2016,02,25,01,55,2.00
2016,02,25,01,56,2.00
2016,02,25,01,57,2.10
2016,02,25,01,58,2.10
2016,02,25,01,59,2.10
2016,02,25,02,00,2.10
2016,02,25,02,01,2.20
2016,02,25,02,02,2.20
2016,02,25,02,03,2.20
2016,02,25,02,04,2.20
2016,02,25,02,05,2.20
2016,02,25,02,06,2.20
2016,02,25,02,07,2.20
2016,02,25,02,08,2.20
2016,02,25,02,09,2.20
2016,02,25,02,10,2.20
2016,02,25,02,11,2.20
2016,02,25,02,12,2.10
2016,02,25,02,13,2.10
2016,02,25,02,14,2.10
2016,02,25,02,15,2.10
2016,02,25,02,16,2.00
2016,02,25,02,17,2.00
2016,02,25,02,18,2.00
2016,02,25,02,19,1.90
2016,02,25,02,20,1.90
2016,02,25,02,21,1.80
2016,02,25,02,22,1.80
2016,02,25,02,23,1.80
2016,02,25,02,24,1.80
2016,02,25,02,25,1.80
2016,02,25,02,26,1.80
2016,02,25,02,27,1.80
2016,02,25,02,28,1.80
2016,02,25,02,29,1.80
2016,02,25,02,30,1.80
2016,02,25,02,31,1.80
2016,02,25,02,32,1.80
2016,02,25,02,33,1.80
2016,02,25,02,34,1.80
2016,02,25,02,35,1.80
2016,02,25,02,36,1.80
2016,02,25,02,37,1.80
2016,02,25,02,38,1.80
2016,02,25,02,39,1.80
2016,02,25,02,40,1.80
2016,02,25,02,41,1.80
2016,02,25,02,42,1.80
2016,02,25,02,43,1.80
2016,02,25,02,44,1.80
2016,02,25,02,45,1.80
2016,02,25,02,46,1.80
2016,02,25,02,47,1.80
2016,02,25,02,48,1.70
2016,02,25,02,49,1.70
2016,02,25,02,50,1.70
2016,02,25,02,51,1.70
2016,02,25,02,52,1.70
2016,02,25,02,53,1.80
2016,02,25,02,54,1.80
2016,02,25,02,55,1.80
2016,02,25,02,56,1.80
2016,02,25,02,57,1.80
2016,02,25,02,58,1.80
2016,02,25,02,59,1.80
2016,02,25,03,00,1.80
2016,02,25,03,01,1.70
2016,02,25,03,02,1.70
2016,02,25,03,03,1.70
2016,02,25,03,04,1.70
2016,02,25,03,05,1.70
2016,02,25,03,06,1.60
2016,02,25,03,07,1.60
2016,02,25,03,08,1.60
2016,02,25,03,09,1.60
2016,02,25,03,10,1.50
2016,02,25,03,11,1.50
2016,02,25,03,12,1.50
2016,02,25,03,13,1.50
2016,02,25,03,14,1.40
2016,02,25,03,15,1.50
2016,02,25,03,16,1.50
2016,02,25,03,17,1.50
2016,02,25,03,18,1.50
2016,02,25,03,19,1.60
2016,02,25,03,20,1.60
2016,02,25,03,21,1.60
2016,02,25,03,22,1.60
2016,02,25,03,23,1.60
2016,02,25,03,24,1.60
2016,02,25,03,25,1.60
2016,02,25,03,26,1.60
2016,02,25,03,27,1.60
2016,02,25,03,28,1.50
2016,02,25,03,29,1.50
2016,02,25,03,30,1.50
2016,02,25,03,31,1.50
2016,02,25,03,32,1.60
2016,02,25,03,33,1.60
2016,02,25,03,34,1.60
2016,02,25,03,35,1.70
2016,02,25,03,36,1.70
2016,02,25,03,37,1.70
2016,02,25,03,38,1.70
2016,02,25,03,39,1.70
2016,02,25,03,40,1.70
2016,02,25,03,41,1.60
2016,02,25,03,42,1.60
2016,02,25,03,43,1.60
2016,02,25,03,44,1.60
2016,02,25,03,45,1.60
2016,02,25,03,46,1.60
2016,02,25,03,47,1.60
2016,02,25,03,48,1.50
2016,02,25,03,49,1.60
2016,02,25,03,50,1.60
2016,02,25,03,51,1.60
2016,02,25,03,52,1.60
2016,02,25,03,53,1.60
2016,02,25,03,54,1.60
2016,02,25,03,55,1.60
2016,02,25,03,56,1.60
2016,02,25,03,57,1.60
2016,02,25,03,58,1.60
2016,02,25,03,59,1.60
2016,02,25,04,00,1.60
2016,02,25,04,01,1.60
2016,02,25,04,02,1.60
2016,02,25,04,03,1.60
2016,02,25,04,04,1.60
2016,02,25,04,05,1.60
2016,02,25,04,06,1.60
2016,02,25,04,07,1.70
2016,02,25,04,08,1.70
2016,02,25,04,09,1.70
2016,02,25,04,10,1.70
2016,02,25,04,11,1.70
2016,02,25,04,12,1.70
2016,02,25,04,13,1.70
2016,02,25,04,14,1.80
2016,02,25,04,15,1.80
2016,02,25,04,16,1.80
2016,02,25,04,17,1.80
2016,02,25,04,18,1.80
2016,02,25,04,19,1.70
2016,02,25,04,20,1.70
2016,02,25,04,21,1.70
2016,02,25,04,22,1.80
2016,02,25,04,23,1.80
2016,02,25,04,24,1.80
2016,02,25,04,25,1.80
2016,02,25,04,26,1.80
2016,02,25,04,27,1.70
2016,02,25,04,28,1.70
2016,02,25,04,29,1.70
2016,02,25,04,30,1.70
2016,02,25,04,31,1.70
2016,02,25,04,32,1.70
2016,02,25,04,33,1.70
2016,02,25,04,34,1.60
2016,02,25,04,35,1.60
2016,02,25,04,36,1.60
2016,02,25,04,37,1.60
2016,02,25,04,38,1.60
2016,02,25,04,39,1.60
2016,02,25,04,40,1.70
2016,02,25,04,41,1.70
2016,02,25,04,42,1.70
2016,02,25,04,43,1.70
2016,02,25,04,44,1.60
2016,02,25,04,45,1.60
2016,02,25,04,46,1.60
2016,02,25,04,47,1.60
2016,02,25,04,48,1.60
2016,02,25,04,49,1.50
2016,02,25,04,50,1.50
2016,02,25,04,51,1.50
2016,02,25,04,52,1.60
2016,02,25,04,53,1.50
2016,02,25,04,54,1.50
2016,02,25,04,55,1.50
2016,02,25,04,56,1.50
2016,02,25,04,57,1.50
2016,02,25,04,58,1.50
2016,02,25,04,59,1.50
2016,02,25,05,00,1.50
2016,02,25,05,01,1.50
2016,02,25,05,02,1.50
2016,02,25,05,03,1.60
2016,02,25,05,04,1.50
2016,02,25,05,05,1.50
2016,02,25,05,06,1.50
2016,02,25,05,07,1.40
2016,02,25,05,08,1.40
2016,02,25,05,09,1.40
2016,02,25,05,10,1.40
2016,02,25,05,11,1.40
2016,02,25,05,12,1.30
2016,02,25,05,13,1.30
2016,02,25,05,14,1.30
2016,02,25,05,15,1.40
2016,02,25,05,16,1.30
2016,02,25,05,17,1.30
2016,02,25,05,18,1.30
2016,02,25,05,19,1.30
2016,02,25,05,20,1.30
2016,02,25,05,21,1.30
2016,02,25,05,22,1.30
2016,02,25,05,23,1.30
2016,02,25,05,24,1.30
2016,02,25,05,25,1.30
2016,02,25,05,26,1.30
2016,02,25,05,27,1.30
2016,02,25,05,28,1.30
2016,02,25,05,29,1.30
2016,02,25,05,30,1.30
2016,02,25,05,31,1.30
2016,02,25,05,32,1.30
2016,02,25,05,33,1.30
2016,02,25,05,34,1.30
2016,02,25,05,35,1.30
2016,02,25,05,36,1.30
2016,02,25,05,37,1.30
2016,02,25,05,38,1.30
2016,02,25,05,39,1.40
2016,02,25,05,40,1.40
2016,02,25,05,41,1.50
2016,02,25,05,42,1.50
2016,02,25,05,43,1.50
2016,02,25,05,44,1.50
2016,02,25,05,45,1.50
2016,02,25,05,46,1.50
2016,02,25,05,47,1.50
2016,02,25,05,48,1.40
2016,02,25,05,49,1.40
2016,02,25,05,50,1.40
2016,02,25,05,51,1.40
2016,02,25,05,52,1.30
2016,02,25,05,53,1.30
2016,02,25,05,54,1.30
2016,02,25,05,55,1.30
2016,02,25,05,56,1.30
2016,02,25,05,57,1.30
2016,02,25,05,58,1.30
2016,02,25,05,59,1.30
2016,02,25,06,00,1.30
2016,02,25,06,01,1.30
2016,02,25,06,02,1.30
2016,02,25,06,03,1.30
2016,02,25,06,04,1.30
2016,02,25,06,05,1.30
2016,02,25,06,06,1.30
2016,02,25,06,07,1.30
2016,02,25,06,08,1.30
2016,02,25,06,09,1.30
2016,02,25,06,10,1.30
2016,02,25,06,11,1.30
2016,02,25,06,12,1.30
2016,02,25,06,13,1.30
2016,02,25,06,14,1.30
2016,02,25,06,15,1.30
2016,02,25,06,16,1.30
2016,02,25,06,17,1.30
2016,02,25,06,18,1.30
2016,02,25,06,19,1.30
2016,02,25,06,20,1.30
2016,02,25,06,21,1.30
2016,02,25,06,22,1.30
2016,02,25,06,23,1.30
2016,02,25,06,24,1.30
2016,02,25,06,25,1.30
2016,02,25,06,26,1.30
2016,02,25,06,27,1.30
2016,02,25,06,28,1.30
2016,02,25,06,29,1.30
2016,02,25,06,30,1.30
2016,02,25,06,31,1.30
2016,02,25,06,32,1.30
2016,02,25,06,33,1.30
2016,02,25,06,34,1.20
2016,02,25,06,35,1.20
2016,02,25,06,36,1.20
2016,02,25,06,37,1.20
2016,02,25,06,38,1.20
2016,02,25,06,39,1.20
2016,02,25,06,40,1.20
2016,02,25,06,41,1.20
2016,02,25,06,42,1.10
2016,02,25,06,43,1.10
2016,02,25,06,44,1.10
2016,02,25,06,45,1.20
2016,02,25,06,46,1.20
2016,02,25,06,47,1.20
2016,02,25,06,48,1.20
2016,02,25,06,49,1.20
2016,02,25,06,50,1.20
2016,02,25,06,51,1.20
2016,02,25,06,52,1.30
2016,02,25,06,53,1.20
2016,02,25,06,54,1.20
2016,02,25,06,55,1.20
2016,02,25,06,56,1.20
2016,02,25,06,57,1.20
2016,02,25,06,58,1.20
2016,02,25,06,59,1.20
2016,02,25,07,00,1.20
2016,02,25,07,01,1.20
2016,02,25,07,02,1.20
2016,02,25,07,03,1.20
2016,02,25,07,04,1.20
2016,02,25,07,05,1.20
2016,02,25,07,06,1.20
2016,02,25,07,07,1.20
2016,02,25,07,08,1.20
2016,02,25,07,09,1.20
2016,02,25,07,10,1.20
2016,02,25,07,11,1.20
2016,02,25,07,12,1.20
2016,02,25,07,13,1.20
2016,02,25,07,14,1.20
2016,02,25,07,15,1.20
2016,02,25,07,16,1.20
2016,02,25,07,17,1.20
2016,02,25,07,18,1.30
2016,02,25,07,19,1.30
2016,02,25,07,20,1.30
2016,02,25,07,21,1.30
2016,02,25,07,22,1.30
2016,02,25,07,23,1.30
2016,02,25,07,24,1.30
2016,02,25,07,25,1.30
2016,02,25,07,26,1.30
2016,02,25,07,27,1.30
2016,02,25,07,28,1.30
2016,02,25,07,29,1.30
2016,02,25,07,30,1.40
2016,02,25,07,31,1.40
2016,02,25,07,32,1.50
2016,02,25,07,33,1.50
2016,02,25,07,34,1.60
2016,02,25,07,35,1.60
2016,02,25,07,36,1.60
2016,02,25,07,37,1.60
2016,02,25,07,38,1.70
2016,02,25,07,39,1.70
2016,02,25,07,40,1.70
2016,02,25,07,41,1.70
2016,02,25,07,42,1.70
2016,02,25,07,43,1.70
2016,02,25,07,44,1.70
2016,02,25,07,45,1.70
2016,02,25,07,46,1.70
2016,02,25,07,47,1.80
2016,02,25,07,48,1.80
2016,02,25,07,49,1.80
2016,02,25,07,50,1.80
2016,02,25,07,51,1.80
2016,02,25,07,52,1.80
2016,02,25,07,53,1.80
2016,02,25,07,54,1.80
2016,02,25,07,55,1.80
2016,02,25,07,56,1.80
2016,02,25,07,57,1.80
2016,02,25,07,58,1.80
2016,02,25,07,59,1.90
2016,02,25,08,00,1.90
2016,02,25,08,01,1.90
2016,02,25,08,02,1.90
2016,02,25,08,03,1.90
2016,02,25,08,04,2.00
2016,02,25,08,05,2.00
2016,02,25,08,06,2.00
2016,02,25,08,07,2.10
2016,02,25,08,08,2.10
2016,02,25,08,09,2.10
2016,02,25,08,10,2.10
2016,02,25,08,11,2.20
2016,02,25,08,12,2.20
2016,02,25,08,13,2.20
2016,02,25,08,14,2.20
2016,02,25,08,15,2.20
2016,02,25,08,16,2.30
2016,02,25,08,17,2.30
2016,02,25,08,18,2.30
2016,02,25,08,19,2.40
2016,02,25,08,20,2.40
2016,02,25,08,21,2.40
2016,02,25,08,22,2.40
2016,02,25,08,23,2.50
2016,02,25,08,24,2.60
2016,02,25,08,25,2.60
2016,02,25,08,26,2.60
2016,02,25,08,27,2.60
2016,02,25,08,28,2.60
2016,02,25,08,29,2.70
2016,02,25,08,30,2.70
2016,02,25,08,31,2.70
2016,02,25,08,32,2.70
2016,02,25,08,33,2.80
2016,02,25,08,34,2.80
2016,02,25,08,35,2.80
2016,02,25,08,36,2.80
2016,02,25,08,37,2.80
2016,02,25,08,38,2.80
2016,02,25,08,39,2.90
2016,02,25,08,40,2.90
2016,02,25,08,41,2.90
2016,02,25,08,42,3.00
2016,02,25,08,43,3.00
2016,02,25,08,44,3.10
2016,02,25,08,45,3.10
2016,02,25,08,46,3.10
2016,02,25,08,47,3.20
2016,02,25,08,48,3.20
2016,02,25,08,49,3.30
2016,02,25,08,50,3.30
2016,02,25,08,51,3.40
2016,02,25,08,52,3.40
2016,02,25,08,53,3.50
2016,02,25,08,54,3.50
2016,02,25,08,55,3.60
2016,02,25,08,56,3.60
2016,02,25,08,57,3.70
2016,02,25,08,58,3.70
2016,02,25,08,59,3.80
2016,02,25,09,00,3.80
2016,02,25,09,01,3.90
2016,02,25,09,02,3.90
2016,02,25,09,03,4.00
2016,02,25,09,04,4.10
2016,02,25,09,05,4.10
2016,02,25,09,06,4.20
2016,02,25,09,07,4.30
2016,02,25,09,08,4.30
2016,02,25,09,09,4.30
2016,02,25,09,10,4.30
2016,02,25,09,11,4.40
2016,02,25,09,12,4.40
2016,02,25,09,13,4.40
2016,02,25,09,14,4.50
2016,02,25,09,15,4.50
2016,02,25,09,16,4.60
2016,02,25,09,17,4.60
2016,02,25,09,18,4.60
2016,02,25,09,19,4.60
2016,02,25,09,20,4.60
2016,02,25,09,21,4.60
2016,02,25,09,22,4.70
2016,02,25,09,23,4.70
2016,02,25,09,24,4.70
2016,02,25,09,25,4.70
2016,02,25,09,26,4.70
2016,02,25,09,27,4.70
2016,02,25,09,28,4.80
2016,02,25,09,29,4.80
2016,02,25,09,30,4.80
2016,02,25,09,31,4.90
2016,02,25,09,32,4.90
2016,02,25,09,33,5.00
2016,02,25,09,34,5.10
2016,02,25,09,35,5.10
2016,02,25,09,36,5.20
2016,02,25,09,37,5.20
2016,02,25,09,38,5.30
2016,02,25,09,39,5.30
2016,02,25,09,40,5.40
2016,02,25,09,41,5.40
2016,02,25,09,42,5.50
2016,02,25,09,43,5.50
2016,02,25,09,44,5.60
2016,02,25,09,45,5.60
2016,02,25,09,46,5.70
2016,02,25,09,47,5.80
2016,02,25,09,48,5.80
2016,02,25,09,49,5.90
2016,02,25,09,50,6.00
2016,02,25,09,51,6.00
2016,02,25,09,52,6.10
2016,02,25,09,53,6.10
2016,02,25,09,54,6.10
2016,02,25,09,55,6.20
2016,02,25,09,56,6.20
2016,02,25,09,57,6.20
2016,02,25,09,58,6.20
2016,02,25,09,59,6.30
2016,02,25,10,00,6.30
2016,02,25,10,01,6.30
2016,02,25,10,02,6.40
2016,02,25,10,03,6.40
2016,02,25,10,04,6.40
2016,02,25,10,05,6.50
2016,02,25,10,06,6.50
2016,02,25,10,07,6.60
2016,02,25,10,08,6.50
2016,02,25,10,09,6.50
2016,02,25,10,10,6.40
2016,02,25,10,11,6.40
2016,02,25,10,12,6.40
2016,02,25,10,13,6.40
2016,02,25,10,14,6.30
2016,02,25,10,15,6.30
2016,02,25,10,16,6.40
2016,02,25,10,17,6.40
2016,02,25,10,18,6.40
2016,02,25,10,19,6.40
2016,02,25,10,20,6.40
2016,02,25,10,21,6.50
2016,02,25,10,22,6.60
2016,02,25,10,23,6.60
2016,02,25,10,24,6.60
2016,02,25,10,25,6.70
2016,02,25,10,26,6.70
2016,02,25,10,27,6.70
2016,02,25,10,28,6.80
2016,02,25,10,29,6.80
2016,02,25,10,30,6.80
2016,02,25,10,31,6.80
2016,02,25,10,32,6.80
2016,02,25,10,33,6.80
2016,02,25,10,34,6.70
2016,02,25,10,35,6.70
2016,02,25,10,36,6.70
2016,02,25,10,37,6.70
2016,02,25,10,38,6.80
2016,02,25,10,39,6.80
2016,02,25,10,40,6.80
2016,02,25,10,41,6.80
2016,02,25,10,42,6.90
2016,02,25,10,43,6.90
2016,02,25,10,44,7.00
2016,02,25,10,45,7.00
2016,02,25,10,46,7.10
2016,02,25,10,47,7.10
2016,02,25,10,48,7.20
2016,02,25,10,49,7.20
2016,02,25,10,50,7.20
2016,02,25,10,51,7.20
2016,02,25,10,52,7.20
2016,02,25,10,53,7.20
2016,02,25,10,54,7.20
2016,02,25,10,55,7.20
2016,02,25,10,56,7.20
2016,02,25,10,57,7.20
2016,02,25,10,58,7.20
2016,02,25,10,59,7.20
2016,02,25,11,00,7.20
2016,02,25,11,01,7.20
2016,02,25,11,02,7.10
2016,02,25,11,03,7.00
2016,02,25,11,04,7.00
2016,02,25,11,05,6.90
2016,02,25,11,06,6.90
2016,02,25,11,07,6.90
2016,02,25,11,08,6.90
2016,02,25,11,09,6.80
2016,02,25,11,10,6.80
2016,02,25,11,11,6.80
2016,02,25,11,12,6.70
2016,02,25,11,13,6.70
2016,02,25,11,14,6.70
2016,02,25,11,15,6.70
2016,02,25,11,16,6.60
2016,02,25,11,17,6.60
2016,02,25,11,18,6.70
2016,02,25,11,19,6.70
2016,02,25,11,20,6.70
2016,02,25,11,21,6.80
2016,02,25,11,22,6.80
2016,02,25,11,23,6.80
2016,02,25,11,24,6.80
2016,02,25,11,25,6.80
2016,02,25,11,26,6.80
2016,02,25,11,27,6.80
2016,02,25,11,28,6.80
2016,02,25,11,29,6.80
2016,02,25,11,30,6.80
2016,02,25,11,31,6.80
2016,02,25,11,32,6.70
2016,02,25,11,33,6.70
2016,02,25,11,34,6.70
2016,02,25,11,35,6.70
2016,02,25,11,36,6.70
2016,02,25,11,37,6.70
2016,02,25,11,38,6.70
2016,02,25,11,39,6.70
2016,02,25,11,40,6.80
2016,02,25,11,41,6.80
2016,02,25,11,42,6.80
2016,02,25,11,43,6.90
2016,02,25,11,44,6.90
2016,02,25,11,45,6.90
2016,02,25,11,46,7.00
2016,02,25,11,47,7.00
2016,02,25,11,48,7.00
2016,02,25,11,49,7.00
2016,02,25,11,50,7.00
2016,02,25,11,51,7.00
2016,02,25,11,52,6.90
2016,02,25,11,53,6.90
2016,02,25,11,54,6.90
2016,02,25,11,55,6.90
2016,02,25,11,56,6.90
2016,02,25,11,57,6.90
2016,02,25,11,58,6.90
2016,02,25,11,59,6.90
2016,02,25,12,00,6.90
2016,02,25,12,01,6.90
2016,02,25,12,02,6.90
2016,02,25,12,03,7.00
2016,02,25,12,04,7.00
2016,02,25,12,05,7.10
2016,02,25,12,06,7.20
2016,02,25,12,07,7.20
2016,02,25,12,08,7.20
2016,02,25,12,09,7.20
2016,02,25,12,10,7.30
2016,02,25,12,11,7.40
2016,02,25,12,12,7.40
2016,02,25,12,13,7.50
2016,02,25,12,14,7.60
2016,02,25,12,15,7.70
2016,02,25,12,16,7.70
2016,02,25,12,17,7.80
2016,02,25,12,18,7.90
2016,02,25,12,19,7.90
2016,02,25,12,20,8.00
2016,02,25,12,21,8.00
2016,02,25,12,22,8.10
2016,02,25,12,23,8.10
2016,02,25,12,24,8.10
2016,02,25,12,25,8.00
2016,02,25,12,26,8.00
2016,02,25,12,27,8.00
2016,02,25,12,28,8.00
2016,02,25,12,29,8.10
2016,02,25,12,30,8.10
2016,02,25,12,31,8.10
2016,02,25,12,32,8.10
2016,02,25,12,33,8.10
2016,02,25,12,34,8.10
2016,02,25,12,35,8.10
2016,02,25,12,36,8.10
2016,02,25,12,37,8.10
2016,02,25,12,38,8.00
2016,02,25,12,39,8.00
2016,02,25,12,40,8.00
2016,02,25,12,41,8.10
2016,02,25,12,42,8.10
2016,02,25,12,43,8.10
2016,02,25,12,44,8.20
2016,02,25,12,45,8.20
2016,02,25,12,46,8.20
2016,02,25,12,47,8.30
2016,02,25,12,48,8.30
2016,02,25,12,49,8.30
2016,02,25,12,50,8.30
2016,02,25,12,51,8.30
2016,02,25,12,52,8.40
2016,02,25,12,53,8.40
2016,02,25,12,54,8.40
2016,02,25,12,55,8.50
2016,02,25,12,56,8.50
2016,02,25,12,57,8.60
2016,02,25,12,58,8.60
2016,02,25,12,59,8.60
2016,02,25,13,00,8.60
2016,02,25,13,01,8.60
2016,02,25,13,02,8.60
2016,02,25,13,03,8.60
2016,02,25,13,04,8.70
2016,02,25,13,05,8.70
2016,02,25,13,06,8.80
2016,02,25,13,07,8.90
2016,02,25,13,08,9.00
2016,02,25,13,09,9.10
2016,02,25,13,10,9.20
2016,02,25,13,11,9.20
2016,02,25,13,12,9.20
2016,02,25,13,13,9.20
2016,02,25,13,14,9.20
2016,02,25,13,15,9.30
2016,02,25,13,16,9.30
2016,02,25,13,17,9.30
2016,02,25,13,18,9.40
2016,02,25,13,19,9.40
2016,02,25,13,20,9.50
2016,02,25,13,21,9.50
2016,02,25,13,22,9.60
2016,02,25,13,23,9.60
2016,02,25,13,24,9.60
2016,02,25,13,25,9.50
2016,02,25,13,26,9.50
2016,02,25,13,27,9.50
2016,02,25,13,28,9.40
2016,02,25,13,29,9.40
2016,02,25,13,30,9.30
2016,02,25,13,31,9.30
2016,02,25,13,32,9.20
2016,02,25,13,33,9.20
2016,02,25,13,34,9.10
2016,02,25,13,35,9.10
2016,02,25,13,36,9.10
2016,02,25,13,37,9.10
2016,02,25,13,38,9.20
2016,02,25,13,39,9.10
2016,02,25,13,40,9.10
2016,02,25,13,41,9.00
2016,02,25,13,42,8.90
2016,02,25,13,43,8.90
2016,02,25,13,44,8.80
2016,02,25,13,45,8.80
2016,02,25,13,46,8.70
2016,02,25,13,47,8.70
2016,02,25,13,48,8.70
2016,02,25,13,49,8.70
2016,02,25,13,50,8.60
2016,02,25,13,51,8.60
2016,02,25,13,52,8.50
2016,02,25,13,53,8.50
2016,02,25,13,54,8.40
2016,02,25,13,55,8.40
2016,02,25,13,56,8.40
2016,02,25,13,57,8.40
2016,02,25,13,58,8.40
2016,02,25,13,59,8.40
2016,02,25,14,00,8.40
2016,02,25,14,01,8.40
2016,02,25,14,02,8.40
2016,02,25,14,03,8.40
2016,02,25,14,04,8.40
2016,02,25,14,05,8.30
2016,02,25,14,06,8.30
2016,02,25,14,07,8.30
2016,02,25,14,08,8.30
2016,02,25,14,09,8.30
2016,02,25,14,10,8.30
2016,02,25,14,11,8.30
2016,02,25,14,12,8.30
2016,02,25,14,13,8.30
2016,02,25,14,14,8.30
2016,02,25,14,15,8.30
2016,02,25,14,16,8.30
2016,02,25,14,17,8.40
2016,02,25,14,18,8.40
2016,02,25,14,19,8.50
2016,02,25,14,20,8.60
2016,02,25,14,21,8.60
2016,02,25,14,22,8.60
2016,02,25,14,23,8.70
2016,02,25,14,24,8.70
2016,02,25,14,25,8.70
2016,02,25,14,26,8.80
2016,02,25,14,27,8.80
2016,02,25,14,28,8.80
2016,02,25,14,29,8.80
2016,02,25,14,30,8.90
2016,02,25,14,31,8.90
2016,02,25,14,32,8.90
2016,02,25,14,33,8.90
2016,02,25,14,34,8.90
2016,02,25,14,35,8.90
2016,02,25,14,36,8.90
2016,02,25,14,37,8.90
2016,02,25,14,38,8.90
2016,02,25,14,39,8.90
2016,02,25,14,40,9.00
2016,02,25,14,41,9.00
2016,02,25,14,42,9.00
2016,02,25,14,43,9.00
2016,02,25,14,44,9.10
2016,02,25,14,45,9.10
2016,02,25,14,46,9.20
2016,02,25,14,47,9.20
2016,02,25,14,48,9.20
2016,02,25,14,49,9.30
2016,02,25,14,50,9.30
2016,02,25,14,51,9.30
2016,02,25,14,52,9.30
2016,02,25,14,53,9.40
2016,02,25,14,54,9.40
2016,02,25,14,55,9.40
2016,02,25,14,56,9.50
2016,02,25,14,57,9.50
2016,02,25,14,58,9.50
2016,02,25,14,59,9.60
2016,02,25,15,00,9.60
2016,02,25,15,01,9.60
2016,02,25,15,02,9.60
2016,02,25,15,03,9.70
2016,02,25,15,04,9.70
2016,02,25,15,05,9.70
2016,02,25,15,06,9.70
2016,02,25,15,07,9.70
2016,02,25,15,08,9.70
2016,02,25,15,09,9.70
2016,02,25,15,10,9.70
2016,02,25,15,11,9.70
2016,02,25,15,12,9.60
2016,02,25,15,13,9.60
2016,02,25,15,14,9.60
2016,02,25,15,15,9.60
2016,02,25,15,16,9.50
2016,02,25,15,17,9.50
2016,02,25,15,18,9.40
2016,02,25,15,19,9.40
2016,02,25,15,20,9.40
2016,02,25,15,21,9.30
2016,02,25,15,22,9.30
2016,02,25,15,23,9.30
2016,02,25,15,24,9.30
2016,02,25,15,25,9.30
2016,02,25,15,26,9.20
2016,02,25,15,27,9.20
2016,02,25,15,28,9.20
2016,02,25,15,29,9.20
2016,02,25,15,30,9.20
2016,02,25,15,31,9.20
2016,02,25,15,32,9.20
2016,02,25,15,33,9.20
2016,02,25,15,34,9.20
2016,02,25,15,35,9.20
2016,02,25,15,36,9.20
2016,02,25,15,37,9.20
2016,02,25,15,38,9.20
2016,02,25,15,39,9.20
2016,02,25,15,40,9.20
2016,02,25,15,41,9.20
2016,02,25,15,42,9.20
2016,02,25,15,43,9.30
2016,02,25,15,44,9.30
2016,02,25,15,45,9.30
2016,02,25,15,46,9.30
2016,02,25,15,47,9.30
2016,02,25,15,48,9.40
2016,02,25,15,49,9.40
2016,02,25,15,50,9.40
2016,02,25,15,51,9.40
2016,02,25,15,52,9.40
2016,02,25,15,53,9.40
2016,02,25,15,54,9.40
2016,02,25,15,55,9.40
2016,02,25,15,56,9.40
2016,02,25,15,57,9.30
2016,02,25,15,58,9.30
2016,02,25,15,59,9.30
2016,02,25,16,00,9.30
2016,02,25,16,01,9.30
2016,02,25,16,02,9.30
2016,02,25,16,03,9.30
2016,02,25,16,04,9.30
2016,02,25,16,05,9.30
2016,02,25,16,06,9.30
2016,02,25,16,07,9.30
2016,02,25,16,08,9.30
2016,02,25,16,09,9.30
2016,02,25,16,10,9.30
2016,02,25,16,11,9.30
2016,02,25,16,12,9.30
2016,02,25,16,13,9.30
2016,02,25,16,14,9.30
2016,02,25,16,15,9.30
2016,02,25,16,16,9.30
2016,02,25,16,17,9.30
2016,02,25,16,18,9.30
2016,02,25,16,19,9.30
2016,02,25,16,20,9.30
2016,02,25,16,21,9.20
2016,02,25,16,22,9.20
2016,02,25,16,23,9.20
2016,02,25,16,24,9.10
2016,02,25,16,25,9.10
2016,02,25,16,26,9.10
2016,02,25,16,27,9.10
2016,02,25,16,28,9.10
2016,02,25,16,29,9.10
2016,02,25,16,30,9.10
2016,02,25,16,31,9.10
2016,02,25,16,32,9.20
2016,02,25,16,33,9.20
2016,02,25,16,34,9.20
2016,02,25,16,35,9.20
2016,02,25,16,36,9.20
2016,02,25,16,37,9.20
2016,02,25,16,38,9.30
2016,02,25,16,39,9.30
2016,02,25,16,40,9.30
2016,02,25,16,41,9.20
2016,02,25,16,42,9.20
2016,02,25,16,43,9.20
2016,02,25,16,44,9.20
2016,02,25,16,45,9.20
2016,02,25,16,46,9.20
2016,02,25,16,47,9.10
2016,02,25,16,48,9.20
2016,02,25,16,49,9.20
2016,02,25,16,50,9.20
2016,02,25,16,51,9.20
2016,02,25,16,52,9.10
2016,02,25,16,53,9.20
2016,02,25,16,54,9.20
2016,02,25,16,55,9.20
2016,02,25,16,56,9.20
2016,02,25,16,57,9.20
2016,02,25,16,58,9.20
2016,02,25,16,59,9.20
2016,02,25,17,00,9.20
2016,02,25,17,01,9.20
2016,02,25,17,02,9.20
2016,02,25,17,03,9.20
2016,02,25,17,04,9.20
2016,02,25,17,05,9.20
2016,02,25,17,06,9.20
2016,02,25,17,07,9.20
2016,02,25,17,08,9.20
2016,02,25,17,09,9.20
2016,02,25,17,10,9.20
2016,02,25,17,11,9.20
2016,02,25,17,12,9.10
2016,02,25,17,13,9.10
2016,02,25,17,14,9.00
2016,02,25,17,15,9.00
2016,02,25,17,16,8.90
2016,02,25,17,17,8.90
2016,02,25,17,18,8.80
2016,02,25,17,19,8.80
2016,02,25,17,20,8.70
2016,02,25,17,21,8.70
2016,02,25,17,22,8.70
2016,02,25,17,23,8.60
2016,02,25,17,24,8.60
2016,02,25,17,25,8.60
2016,02,25,17,26,8.50
2016,02,25,17,27,8.50
2016,02,25,17,28,8.50
2016,02,25,17,29,8.50
2016,02,25,17,30,8.40
2016,02,25,17,31,8.40
2016,02,25,17,32,8.40
2016,02,25,17,33,8.40
2016,02,25,17,34,8.40
2016,02,25,17,35,8.40
2016,02,25,17,36,8.40
2016,02,25,17,37,8.40
2016,02,25,17,38,8.40
2016,02,25,17,39,8.40
2016,02,25,17,40,8.40
2016,02,25,17,41,8.30
2016,02,25,17,42,8.30
2016,02,25,17,43,8.30
2016,02,25,17,44,8.30
2016,02,25,17,45,8.30
2016,02,25,17,46,8.30
2016,02,25,17,47,8.20
2016,02,25,17,48,8.20
2016,02,25,17,49,8.20
2016,02,25,17,50,8.10
2016,02,25,17,51,8.10
2016,02,25,17,52,8.10
2016,02,25,17,53,8.00
2016,02,25,17,54,8.00
2016,02,25,17,55,7.90
2016,02,25,17,56,7.80
2016,02,25,17,57,7.80
2016,02,25,17,58,7.70
2016,02,25,17,59,7.60
2016,02,25,18,00,7.60
2016,02,25,18,01,7.50
2016,02,25,18,02,7.40
2016,02,25,18,03,7.30
2016,02,25,18,04,7.30
2016,02,25,18,05,7.20
2016,02,25,18,06,7.20